Regional Weather Roundup
Issued by NWS Northern Indiana

Home | Current Version | Previous Version | Graphics & Text | Print | Product List | Glossary On
Versions: 1 2 3 4 5 6 7 8 9 10 11 12 13 14 15 16 17 18 19 20 21 22 23 24 25 26 27 28 29 30 31 32 33 34 35 36 37 38 39 40 41 42 43 44 45 46 47 48 49 50
000
ASUS43 KIWX 280410
RWRIWX

KIWX WEATHER ROUNDUP
NATIONAL WEATHER SERVICE NORTHERN INDIANA
1200 AM EDT SUN AUG 28 2016

NOTE: "FAIR" INDICATES FEW OR NO CLOUDS BELOW 12,000 FEET WITH NO
SIGNIFICANT WEATHER AND/OR OBSTRUCTIONS TO VISIBILITY.

* THESE STATIONS ARE NOT UNDER NWS QUALITY CONTROL. THEY ALSO MAY NOT
  REPORT WEATHER SUCH AS PRECIPITATION OR FOG.

INZ001>027-280500-
NORTHERN INDIANA

CITY           SKY/WX    TMP DP  RH WIND       PRES   REMARKS
GARY*          PTCLDY    76  74  95 CALM      30.09S
VALPARAISO     CLOUDY    76  72  87 CALM      30.10F
MICHIGAN CITY* MOCLDY    75  73  94 MISG      30.10S
LAPORTE*       CLOUDY   N/A N/A N/A CALM      30.11S
KNOX*          PTCLDY    72  59  64 S3        30.10S
SOUTH BEND     CLOUDY    74  72  93 S5        30.11S
GOSHEN         PTCLDY    71  68  90 S3        30.11S
MONTICELLO*    CLEAR     74  70  86 CALM      30.09F
LOGANSPORT*    CLOUDY    72  70  94 SE6       30.12S
ROCHESTER*     CLEAR     77  73  88 CALM      30.12S
WARSAW*        PTCLDY    73  73 100 CALM      30.12S
ANGOLA*        CLEAR     72  64  78 CALM      30.13S
FORT WAYNE     MOCLDY    72  69  90 SE3       30.13S
HUNTINGTON*    PTCLDY    73  71  94 S3        30.12F
PERU/GRISSOM   CLOUDY    73  72  98 S3        30.11R
MARION*        CLEAR     72  69  92 S5        30.13F

$$
INZ028>050-280500-
CENTRAL INDIANA

CITY           SKY/WX    TMP DP  RH WIND       PRES   REMARKS
LAFAYETTE      CLEAR     74  72  93 CALM      30.09F
KOKOMO*        PTCLDY    73  72  94 S9        30.12S
MUNCIE*        PTCLDY    76  71  85 S3        30.14S
INDIANAPOLIS   PTCLDY    76  73  91 SE7       30.12S

$$
MIZ043>046-050>051-056>058-064>065-071>073-077>080-280500-
SOUTHWEST LOWER MICHIGAN

CITY           SKY/WX    TMP DP  RH WIND       PRES   REMARKS
BATTLE CREEK   CLEAR     71  71 100 S8        30.12R
BENTON HARBOR  PTCLDY    74  71  91 S5        30.09R
COLDWATER*     CLEAR     71  71 100 SE5       30.13S FOG
HILLSDALE*     CLOUDY    71  70  96 CALM      30.15R FOG
HOLLAND        PTCLDY    73  70  90 S5        30.09R
GRAND RAPIDS   TSTM      73  71  93 SW8       30.10R FOG
KALAMAZOO      CLEAR     75  70  84 S6        30.11R
STURGIS*       CLEAR     71  68  92 CALM      30.12S
THREE RIVERS*  FAIR      72  72 100 S3        30.12S

$$
OHZ001>008-015>018-024>025-280500-
NORTHWEST OHIO

CITY           SKY/WX    TMP DP  RH WIND       PRES   REMARKS
WAUSEON*       FAIR      72  70  94 S3        30.13S FOG
DEFIANCE       CLOUDY    74  70  87 S3        30.13S
FINDLAY        PTCLDY    71  67  87 S5        30.13S
TOLEDO EXPRESS PTCLDY    70  70 100 CALM      30.13R
TOLEDO METCALF CLEAR     72  71  97 S5        30.14R
LIMA           PTCLDY    71  70  96 S3        30.15S

$$
AND FOR LAKE MICHIGAN COASTAL AND OPEN LAKE BUOY OBSERVATIONS

STATION/POSITION TEMP    WIND        PRES    VSBY  WAVE
                 AIR SEA DIR/SP/G                  HT/PER
                 (F)     (DEG/KT/KT) (MB)    (MI)  (FT/S)
CALUMET HARBOR    79     210/  2/  3 1018.1R
MICHIGAN CITY     78     160/ 11/ 13   N/A
BURNS HARBOR      78     190/  6/ 11 1019.3R
SAINT JOSEPH      78     190/  6/  9 1019.6R
SOUTH LAKE BUOY   76 75  220/ 19/ 25 1017.1          1
4 MI NW BRIDGMAN  77 75  190/  8/ 10 1018.3R         1/ 2
MICHIGAN CITY     77 76  190/  6/  6   N/A           1

$$
&&



USA.gov is the U.S. government's official web portal to all federal, state and local government web resources and services.